Observations for Trim Patrick St
| Time | AQI | Temp °C | Hum % | Pres Pa | CO μg/m³ | H₂S μg/m³ | NO μg/m³ | NO₂ μg/m³ | O₃ μg/m³ | SO₂ μg/m³ | PM1 μg/m³ | PM2.5 μg/m³ | PM10 μg/m³ |
|---|---|---|---|---|---|---|---|---|---|---|---|---|---|
| Friday 28 August 2026 | |||||||||||||
| 01:26 | 3 | 16.9 | 87 | 38,460 | 0.14 | 1.76 | 1.57 | 12.79 | 36.4 | 0 | 12.29 | 16.37 | 18.01 |
| 01:25 | 3 | 16.9 | 87 | 38,460 | 0.13 | 0.84 | 1.59 | 12.58 | 37.16 | 0 | 12.29 | 17.74 | 19.52 |
| 01:24 | 3 | 16.9 | 87 | 38,460 | 0.13 | 1.18 | 1.62 | 12.9 | 39.11 | 0 | 10.57 | 16.37 | 18.01 |
| 01:23 | 3 | 16.9 | 87 | 38,460 | 0.12 | 0.55 | 1.46 | 12.04 | 38.78 | 0 | 11.43 | 15.69 | 17.26 |
| 01:21 | 3 | 16.9 | 87 | 38,460 | 0.12 | 1.99 | 1.13 | 12.9 | 40.19 | 0 | 11.43 | 17.06 | 18.76 |
| 01:18 | 3 | 16.9 | 87 | 38,460 | 0.13 | 1.36 | 1.24 | 12.58 | 38.5 | 0 | 10.57 | 18.43 | 20.27 |
| 01:17 | 3 | 16.9 | 87 | 38,460 | 0.13 | 1.36 | 1.26 | 11.92 | 41.03 | 0 | 10.57 | 16.38 | 18.02 |
| 01:16 | 3 | 16.9 | 87 | 38,460 | 0.12 | 1.49 | 1.23 | 14.78 | 30.67 | 0 | 11.43 | 17.07 | 18.78 |
| 01:15 | 3 | 16.9 | 87 | 38,460 | 0.13 | 0.47 | 1.15 | 11.51 | 40.5 | 0 | 12.29 | 18.44 | 20.28 |
| 01:13 | 3 | 16.9 | 87 | 38,460 | 0.13 | 0.71 | 1.47 | 12.13 | 40.75 | 0 | 10.57 | 17.07 | 18.78 |
| 01:12 | 3 | 16.9 | 87 | 38,460 | 0.14 | 1.68 | 1.48 | 12.33 | 41.16 | 0 | 13.14 | 19.82 | 21.8 |
| 01:11 | 3 | 16.9 | 87 | 38,460 | 0.13 | 1.57 | 1.98 | 14.53 | 32.7 | 0 | 11.43 | 17.07 | 18.78 |
| 01:10 | 3 | 16.9 | 87 | 38,460 | 0.13 | 1.65 | 1.87 | 12.33 | 40.88 | 0 | 11.43 | 17.76 | 19.54 |
| 01:09 | 3 | 16.9 | 87 | 38,460 | 0.13 | 1.99 | 1.69 | 14.08 | 35.5 | 0 | 9.71 | 15.71 | 17.28 |
| 01:08 | 3 | 16.9 | 87 | 38,460 | 0.15 | 0.32 | 1.73 | 12.87 | 37.46 | 0 | 10.57 | 15.71 | 17.28 |
| 01:07 | 3 | 16.9 | 87 | 38,460 | 0.12 | 1.23 | 1.51 | 11.9 | 40.72 | 0 | 11.43 | 17.76 | 19.54 |
| 01:06 | 3 | 16.9 | 87 | 38,460 | 0.13 | 0.97 | 1.25 | 12.44 | 39.31 | 0 | 12.29 | 17.76 | 19.54 |
| 01:05 | 3 | 16.9 | 87 | 38,460 | 0.12 | 1.13 | 1.25 | 12.22 | 39.35 | 0 | 13.14 | 18.45 | 20.29 |
| 01:04 | 3 | 17 | 87 | 38,460 | 0.12 | 1.99 | 1.14 | 13.86 | 37.01 | 0 | 13.14 | 18.45 | 20.29 |
| 01:03 | 3 | 16.9 | 87 | 38,460 | 0.12 | 1.62 | 1.14 | 12.43 | 40.5 | 0 | 10.57 | 15.72 | 17.29 |